Regional Weather Roundup
Issued by NWS

Home | Current Version | Previous Version | Graphics & Text | Print | Product List | Glossary Off
Versions: 1 2 3 4 5 6 7 8 9 10 11 12 13 14 15 16 17 18 19 20 21 22 23 24 25 26 27 28 29 30 31 32 33 34 35 36 37 38 39 40 41 42 43 44 45 46 47 48 49 50

000
ASUS43 KFSD 190810
RWRSD

WEATHER ROUNDUP FOR SOUTH DAKOTA
NATIONAL WEATHER SERVICE SIOUX FALLS SD
200 AM CST MON FEB 19 2018

NOTE: "FAIR" INDICATES FEW OR NO CLOUDS BELOW 12,000 FEET WITH NO
SIGNIFICANT WEATHER AND/OR OBSTRUCTIONS TO VISIBILITY.


SDZ001>005-009-010-012>017-190900-
NORTHWEST AND NORTH CENTRAL SOUTH DAKOTA

CITY           SKY/WX    TMP DP  RH WIND       PRES   REMARKS
BUFFALO          N/A      4  -1  80 N7        29.93R WCI  -8
FAITH            N/A      3   1  91 N22       29.94F WCI -19
MOBRIDGE       MIX PCPN   9   4  80 N17G25    30.00S WCI  -9
$$

SDZ012>016-024>037-041>051-057-063-072>074-190900-
SOUTHWEST AND SOUTH CENTRAL SOUTH DAKOTA

CITY           SKY/WX    TMP DP  RH WIND       PRES   REMARKS
RAPID CTY ARPT LGT SNOW   3  -1  83 N20       29.96R FOG     WCI -18
PIERRE         LGT SNOW   9   5  84 N21       29.99F FOG     WCI -11
CUSTER         SNOW       2  -3  80 NW6       29.71R VSB 1/2 WCI  -9
ELLSWORTH AFB  CLOUDY     4   1  87 N16       29.94  BLWGSNOWWCI -15
PHILIP         LGT SNOW   8   4  83 N14       29.97F FOG     WCI  -8
PINE RIDGE     CLOUDY     7   2  80 N10       29.88S WCI  -8
SPEARFISH      FLURRIES   1  -2  85 NW5       29.94R WCI  -8
WINNER         LGT SNOW  12   7  80 N23       29.93R WCI  -7
$$

SDZ004>011-016>023-039-040-190900-
NORTHEAST SOUTH DAKOTA

CITY           SKY/WX    TMP DP  RH WIND       PRES   REMARKS
ABERDEEN       LGT SNOW  10   5  80 N24G33    29.97F WCI -10
WATERTOWN      CLOUDY    11   6  81 N25G35    29.82F WCI -10
BROOKINGS      FLURRIES  12   8  84 N21G31    29.81S WCI  -7
$$

SDZ017-020-022-023-036>040-048>070-190900-
SOUTHEAST SOUTH DAKOTA

CITY           SKY/WX    TMP DP  RH WIND       PRES   REMARKS
SIOUX FALLS    CLOUDY    18  13  80 N20G29    29.81R WCI   2
HURON          LGT SNOW  11   7  84 N18G28    29.96R FOG     WCI  -7
CHAMBERLAIN    LGT SNOW  13   9  86 NW17G23   29.98R WCI  -4
MITCHELL       CLOUDY    14   9  80 N18       29.94R WCI  -3
YANKTON        CLOUDY    20  15  81 N21G29    29.82R WCI   4
$$

ABBREVIATIONS USED IN REMARKS
   TC - TEMPERATURE IN CELSIUS
  WCI - WIND CHILL INDEX
   HX - HEAT INDEX
  VSB - VISIBILITY





USA.gov is the U.S. government's official web portal to all federal, state and local government web resources and services.